Theta_e
329 331 332 334 339 340 339 341 340 340 344 345 344 346 345 346 351 349 347 352 356 357 357 357 357 354 352 353 351 350 350 347 345 346 346 346 346 346 346 346 347 347 347 348 348 349 349 350 350 350 349 349 349 349 346 344 345 345 345 345 345 345 345
327 328 329 329 331 333 335 337 340 338 338 341 347 349 345 345 350 349 347 351 353 351 353 358 359 356 354 354 352 350 349 348 347 346 346 346 346 347 346 346 347 347 348 349 349 349 349 349 349 349 349 349 349 350 347 343 344 346 346 346 346 345 346
328 331 331 329 328 327 331 336 338 339 340 338 340 345 345 344 348 350 348 350 351 351 353 358 359 357 355 353 353 352 349 348 347 346 347 346 346 347 346 346 347 348 348 349 349 349 349 349 350 349 349 349 350 350 347 343 342 344 345 346 346 346 347
328 330 329 327 326 324 326 330 333 340 347 343 338 340 342 343 346 348 345 346 350 354 356 360 359 357 356 353 353 353 349 348 348 346 347 346 346 347 346 346 348 348 348 349 349 349 349 349 349 349 349 349 350 351 349 344 341 342 344 345 346 346 347
324 324 325 327 327 324 322 324 327 332 337 339 337 337 336 341 346 346 345 346 350 356 358 360 358 356 355 354 353 351 349 349 349 347 346 346 346 347 346 346 347 348 348 348 348 348 349 349 349 349 349 349 349 350 351 347 341 341 342 344 346 346 346
321 324 327 327 328 327 324 325 326 327 332 335 336 336 333 337 342 344 346 348 353 358 357 355 356 354 353 353 352 350 349 348 350 349 347 347 347 347 347 346 347 348 348 348 348 347 347 348 348 348 349 350 350 350 351 349 343 340 341 342 344 345 346
322 324 326 324 325 326 324 325 326 326 333 337 335 336 335 334 337 341 346 350 355 359 358 353 353 353 352 352 351 350 351 350 350 350 348 348 348 347 346 346 346 347 347 348 348 347 347 348 348 349 350 350 350 349 351 351 347 341 340 342 343 344 344
336 330 331 330 327 325 321 322 324 324 329 334 337 343 345 338 337 342 346 348 351 357 360 354 350 351 353 352 351 350 351 350 350 350 349 349 348 347 346 346 346 347 347 347 347 347 347 348 348 349 350 349 349 349 350 351 350 345 341 341 342 342 343
339 336 337 336 333 331 326 324 324 323 325 329 333 340 342 336 335 339 340 341 347 356 359 354 351 352 352 352 351 351 351 351 351 350 350 349 348 348 347 346 346 347 347 347 347 347 347 347 348 348 349 349 349 350 350 350 351 349 344 341 340 342 342
329 331 331 331 332 332 328 327 329 328 324 322 327 334 334 332 334 336 336 340 349 356 356 354 354 352 352 351 351 351 352 352 351 350 350 349 348 350 349 347 347 347 346 347 347 346 347 347 347 347 347 349 350 350 350 350 351 350 347 342 340 341 341
330 335 336 335 333 328 326 331 337 340 334 327 332 335 334 336 336 337 342 347 350 355 356 355 355 354 353 352 350 350 352 351 351 350 349 347 347 351 352 349 348 346 345 346 346 345 346 346 347 347 347 349 350 350 350 350 350 349 347 344 342 342 343
328 334 334 331 329 327 331 337 340 343 342 341 342 336 333 340 337 335 347 353 350 354 357 355 354 353 353 352 350 350 350 350 350 349 348 347 348 352 352 349 348 346 344 346 347 347 346 346 347 347 347 348 349 349 349 350 350 349 347 346 345 345 347
325 327 329 329 332 334 338 340 340 342 343 344 346 343 343 346 341 339 349 353 350 352 354 352 352 351 350 350 349 350 350 351 350 349 348 349 349 352 351 348 348 346 344 344 346 348 348 347 348 348 348 349 349 349 349 349 351 350 348 347 347 347 350
328 329 329 333 335 336 338 340 340 342 342 343 344 346 347 349 347 347 350 350 348 348 348 349 350 349 349 348 348 350 350 351 351 350 350 350 350 351 351 349 348 347 345 344 345 348 350 348 348 349 349 349 349 349 350 350 350 350 349 349 348 348 349
330 329 329 333 336 337 337 339 341 342 343 344 344 344 346 348 349 348 348 349 350 346 344 346 347 346 347 347 347 348 349 349 350 350 351 351 351 351 351 350 349 347 346 345 344 347 350 349 349 349 349 349 349 349 350 350 351 350 349 349 349 349 349
327 324 327 330 332 334 334 334 338 342 343 344 344 344 345 346 348 348 349 350 351 347 345 346 345 344 344 344 344 345 346 348 348 349 350 350 349 350 351 350 350 348 346 347 347 347 349 349 350 349 349 349 349 350 350 349 350 350 349 349 349 349 349
325 324 327 327 329 334 336 334 334 338 342 342 342 343 344 344 347 349 350 349 348 346 345 346 346 345 344 344 344 344 345 346 347 347 348 347 346 348 350 350 351 349 346 347 348 348 348 350 351 351 350 350 351 351 352 352 351 350 350 349 350 350 349
324 327 327 328 332 334 334 336 337 337 338 339 340 342 343 344 345 347 347 346 343 343 344 346 347 346 346 346 345 345 345 345 346 346 346 345 345 347 349 350 351 350 348 347 348 349 350 352 352 351 351 352 352 352 352 353 352 350 349 349 349 350 349
326 332 333 332 334 332 332 338 342 338 335 335 337 338 339 342 343 343 344 343 342 343 344 345 345 345 345 346 346 345 345 345 346 346 345 346 346 346 348 348 349 350 350 350 350 350 352 352 351 351 352 352 352 351 351 352 351 349 349 348 348 349 349
327 333 337 335 334 332 332 337 338 334 332 335 339 339 338 339 342 343 343 342 343 344 344 343 343 344 344 344 344 345 346 346 346 346 346 346 346 347 347 346 346 349 350 350 350 349 349 350 349 350 352 352 352 350 348 349 349 350 351 351 350 350 350
328 330 332 334 337 335 335 337 333 329 332 335 339 341 338 336 340 343 342 341 341 342 343 343 342 341 342 343 342 343 344 345 345 345 346 345 345 345 347 347 347 349 350 350 350 348 347 348 347 347 349 351 353 352 350 349 349 350 353 354 354 353 352
333 335 331 333 340 340 340 338 331 329 331 330 333 341 339 334 337 342 341 341 340 339 341 342 340 341 345 345 343 342 342 343 343 343 343 344 343 344 345 347 348 349 350 350 350 350 350 349 349 349 350 352 353 353 353 352 352 352 353 352 352 352 352
333 338 336 336 340 340 339 336 330 329 333 330 332 343 343 335 337 341 341 340 340 339 339 339 339 345 351 346 342 342 341 341 341 341 341 341 341 342 343 345 345 346 348 349 350 350 350 349 349 349 350 350 351 351 351 352 352 353 352 350 349 348 348
332 339 339 337 338 338 336 332 330 331 332 330 332 341 341 336 338 342 341 340 341 340 339 338 339 345 349 344 341 342 341 340 340 340 339 339 340 340 342 342 343 344 345 347 348 348 348 348 348 348 349 349 349 348 349 349 349 349 349 348 349 350 350
335 340 339 336 336 338 334 331 331 330 332 337 340 339 338 338 339 342 341 340 341 339 339 339 339 340 343 341 341 341 340 339 339 338 337 337 336 337 338 339 341 342 342 343 344 344 345 345 346 346 347 347 347 347 348 348 348 348 348 348 349 351 352
335 339 340 337 337 337 331 329 330 330 335 342 341 336 337 339 340 341 340 339 340 339 338 340 340 340 341 341 340 340 339 339 338 337 337 335 333 333 334 335 336 338 338 340 341 341 342 343 344 344 343 344 344 345 346 346 346 347 347 347 347 347 348
336 340 341 342 341 336 331 333 336 335 337 339 335 333 337 339 339 340 340 339 339 339 339 340 340 340 340 339 338 338 338 338 338 338 336 334 332 332 333 333 334 335 335 336 337 338 339 340 341 341 342 343 343 343 343 341 341 343 344 345 344 343 343
338 340 338 338 337 332 331 335 337 336 335 335 333 334 337 338 339 339 339 339 339 339 338 339 339 338 338 337 337 336 336 336 337 336 335 334 333 332 332 333 332 330 330 332 334 335 336 337 338 339 340 341 340 340 339 338 338 340 342 342 342 341 341
335 337 334 331 330 330 330 333 333 333 333 333 333 335 336 338 339 339 338 338 338 338 338 337 337 337 336 335 335 335 335 335 334 335 335 334 333 331 331 331 327 321 320 323 325 326 327 330 331 332 334 337 337 337 336 335 335 337 338 339 341 341 340
331 332 329 327 328 329 330 330 330 331 333 332 333 334 334 336 338 338 338 338 337 337 337 336 335 335 334 334 334 333 334 333 332 332 331 329 328 328 328 326 320 314 313 314 314 315 316 318 319 319 322 327 330 332 332 331 329 329 331 333 335 336 336
334 333 328 327 329 328 328 329 329 329 331 332 333 334 333 333 335 336 337 338 337 337 337 336 335 334 333 332 331 330 331 329 326 327 328 327 327 328 328 324 318 314 313 312 312 312 313 313 312 312 313 315 317 319 320 320 319 320 321 324 327 327 327
335 333 328 327 329 328 328 329 329 328 330 332 332 332 331 332 334 336 337 337 337 337 337 337 335 333 331 330 329 329 329 327 325 324 326 327 327 328 328 326 322 319 318 316 313 311 310 310 310 312 313 313 312 311 311 310 312 314 315 318 322 323 323
331 329 328 329 331 330 328 328 328 328 328 330 331 332 331 330 332 334 335 336 336 336 337 337 336 334 331 330 331 332 331 331 329 326 325 326 327 328 327 327 325 322 319 318 316 313 311 311 312 313 315 316 314 312 311 308 308 310 311 313 316 319 319
332 332 329 329 331 332 330 328 327 327 327 328 329 330 331 331 331 330 331 333 334 335 336 337 336 335 334 332 333 334 334 332 330 327 326 327 329 328 327 327 327 324 320 318 317 315 313 313 313 314 315 317 317 316 312 308 308 310 312 313 313 313 316
332 331 328 327 330 331 329 328 327 326 327 328 328 328 329 331 332 331 329 329 331 332 334 335 335 336 335 334 334 334 334 332 330 329 329 329 328 328 327 327 328 324 319 316 315 314 314 314 313 313 315 318 318 316 312 308 308 310 314 317 317 316 319
329 328 327 328 329 329 329 329 328 325 325 326 327 327 327 328 330 330 330 330 330 331 332 333 334 334 334 334 334 334 334 333 331 331 330 329 329 328 327 328 327 322 316 315 316 315 316 316 314 313 314 315 315 314 312 310 309 310 313 317 318 318 320
328 328 328 328 328 329 329 329 327 326 324 323 325 327 327 327 327 329 329 330 331 332 332 332 332 332 333 333 333 333 334 334 333 332 331 330 329 328 328 328 327 322 317 317 317 317 317 316 314 314 315 315 315 314 313 312 311 313 315 318 319 318 319
Wind_Speed
9 14 12 12 12 6 1 2 2 3 3 5 6 2 1 4 2 1 2 2 2 1 2 4 6 7 11 13 15 16 19 24 29 28 19 18 29 35 35 37 38 38 38 35 33 33 33 34 33 30 27 26 25 25 25 25 25 25 25 25 25 25 24
3 14 15 9 11 11 5 2 5 2 1 3 5 3 1 2 1 1 3 3 2 1 1 3 7 9 10 12 13 15 17 20 25 29 25 18 23 30 33 36 39 39 38 36 34 33 34 34 34 31 28 26 24 24 25 26 26 26 26 25 25 25 25
3 6 9 1 6 8 8 6 7 4 2 1 3 3 2 2 0 1 2 3 3 4 3 4 9 11 12 13 13 12 13 17 23 30 28 20 19 25 29 33 36 40 40 37 35 34 34 34 34 31 28 26 24 23 24 26 26 25 25 25 25 25 25
5 4 5 1 5 3 5 5 5 3 2 3 4 2 3 4 2 1 1 0 3 4 5 7 10 11 12 13 12 10 13 19 26 31 30 24 20 22 28 33 36 40 41 37 36 35 35 35 34 32 29 27 25 22 23 25 26 25 25 26 26 26 26
6 4 4 7 5 5 4 3 2 3 0 2 2 1 2 4 3 2 1 0 4 4 3 7 11 10 11 13 12 12 19 24 28 33 33 29 24 23 29 33 35 40 40 37 36 36 35 36 35 33 30 28 26 23 22 24 27 26 25 26 27 26 26
1 3 5 7 8 7 6 4 4 5 2 3 3 0 2 2 4 4 3 2 5 3 3 6 8 9 10 15 14 13 20 26 27 30 31 30 25 23 30 34 34 39 40 38 38 37 37 37 36 34 32 29 27 25 23 23 26 27 25 25 26 26 26
4 8 8 4 8 6 5 5 5 5 4 4 5 3 3 2 3 2 3 1 4 4 3 5 6 9 14 20 20 16 18 22 24 25 26 27 24 22 29 35 34 38 41 39 40 39 39 39 37 35 33 31 28 26 25 24 24 26 26 25 25 26 26
5 8 7 4 3 1 2 2 2 4 4 4 5 4 3 4 3 2 3 1 3 4 2 6 10 12 15 20 23 21 20 21 25 26 25 26 23 18 24 31 34 38 41 40 41 40 39 39 38 36 34 31 29 27 27 26 24 25 26 25 25 25 25
6 7 8 7 5 4 1 4 5 3 6 5 3 1 3 3 4 5 4 1 4 4 1 4 9 10 11 15 21 23 22 22 25 26 28 30 24 15 17 25 30 37 41 40 41 41 41 41 39 37 34 31 29 28 27 26 24 24 25 26 26 25 25
2 2 3 3 4 4 3 4 5 4 5 6 4 2 4 2 3 4 4 3 3 2 2 4 6 7 7 10 16 20 21 24 26 26 28 31 24 12 13 18 24 32 39 41 42 41 40 41 40 36 34 31 30 29 27 24 22 22 25 27 26 26 25
4 4 6 6 4 2 5 6 9 9 5 2 6 4 4 4 4 3 3 3 5 2 2 4 5 6 6 8 13 16 17 20 25 26 28 31 24 12 12 15 18 26 31 33 40 43 40 40 40 37 34 32 31 28 26 24 21 20 22 25 25 25 24
1 4 4 4 3 4 5 7 10 11 9 7 8 4 4 5 6 2 4 4 6 2 2 4 3 4 5 5 9 12 17 21 24 25 27 31 27 16 13 14 16 23 25 21 26 36 41 40 39 37 35 32 31 28 26 25 23 21 21 21 23 24 23
9 9 10 10 7 7 8 10 13 14 13 11 9 4 3 6 6 3 6 12 9 4 5 5 4 6 9 11 12 10 12 15 20 26 28 30 29 21 16 16 16 21 27 23 18 24 36 41 40 37 35 32 30 29 28 27 25 23 22 21 21 22 22
9 11 12 11 9 10 12 12 12 15 16 14 12 10 11 13 11 8 12 16 11 7 6 7 9 13 16 16 15 14 11 9 7 16 23 27 29 25 20 20 19 21 28 30 25 21 28 39 41 38 35 33 32 32 31 29 27 26 25 24 23 22 22
4 6 7 10 13 14 15 13 12 14 18 16 14 12 10 11 11 10 13 14 9 5 5 9 13 17 17 16 14 14 11 8 6 5 6 12 15 16 16 17 18 21 26 29 29 26 25 31 37 38 36 34 33 33 32 31 30 29 28 27 26 24 23
3 5 4 5 12 14 15 15 15 13 15 13 11 10 8 6 7 10 13 10 3 4 5 10 14 17 17 14 12 13 10 6 7 6 5 4 4 6 11 12 13 19 22 22 25 28 28 27 32 36 35 34 33 33 32 32 31 29 29 29 28 26 24
3 6 4 0 6 10 9 7 10 9 10 12 11 12 12 10 7 7 8 5 2 5 5 7 11 13 14 11 9 10 9 6 5 7 7 6 4 5 10 12 13 17 21 21 22 27 30 28 27 30 32 34 34 31 29 29 32 33 32 32 30 29 27
2 4 5 5 6 5 2 4 7 8 9 16 15 12 14 13 10 8 7 6 5 7 7 7 10 12 14 13 10 9 8 6 5 5 6 7 6 5 10 14 14 16 21 25 27 28 29 24 20 21 24 30 32 30 25 24 28 33 32 31 31 31 29
1 1 5 6 5 2 4 3 2 5 4 14 16 13 14 14 11 10 10 9 9 7 6 9 13 15 16 16 12 9 7 5 6 10 11 10 9 8 8 13 15 13 17 22 27 31 29 22 18 16 16 20 25 27 25 22 24 28 29 28 30 31 30
0 2 4 3 3 3 4 5 3 5 3 6 10 11 13 12 9 7 7 8 9 10 10 13 18 19 18 17 15 12 10 6 6 10 13 12 11 10 9 14 17 14 14 18 23 30 32 27 22 19 16 16 19 22 23 24 25 27 27 28 29 30 29
1 3 3 3 3 1 1 1 1 4 5 2 5 6 6 8 9 7 5 5 5 6 9 13 15 14 14 14 13 10 10 8 7 8 9 10 11 12 11 13 15 15 15 17 18 22 26 27 26 25 23 21 19 19 22 25 27 28 27 27 27 28 28
2 5 4 4 3 1 3 4 7 9 8 3 3 6 2 6 10 9 6 4 2 2 4 7 5 4 6 6 7 8 8 8 9 9 9 8 9 11 12 13 13 14 16 17 15 16 18 17 17 20 22 21 18 18 21 24 26 26 26 26 26 27 28
2 5 4 2 2 3 4 6 10 15 15 8 1 5 3 6 9 10 8 5 2 4 5 3 1 3 3 0 2 5 8 10 11 12 11 10 9 8 9 11 12 13 12 12 13 14 14 11 8 9 13 16 16 16 19 20 21 21 22 23 24 26 28
2 4 3 1 1 3 5 7 13 20 18 5 4 4 3 4 7 9 9 7 4 4 5 1 4 4 3 4 3 5 8 11 14 15 15 16 15 12 10 9 9 10 9 9 10 10 9 7 5 3 5 9 12 14 16 17 18 20 21 23 24 27 27
2 4 4 0 1 3 5 9 14 18 13 3 6 2 5 1 7 9 9 9 7 6 5 5 7 7 9 11 11 10 10 11 15 17 17 17 16 14 12 10 8 8 8 7 7 6 5 4 4 1 3 6 8 10 12 12 15 19 21 23 27 29 28
3 3 3 1 1 3 8 12 12 10 5 2 3 3 5 7 9 9 10 11 13 14 14 15 15 15 16 15 14 11 10 10 13 15 15 15 15 15 14 12 10 9 9 10 9 9 10 8 6 3 2 3 2 4 6 5 9 14 15 16 19 20 19
2 3 4 3 2 6 14 11 7 6 4 6 7 9 10 9 9 10 11 13 16 19 20 19 19 18 17 15 13 11 9 9 10 11 11 13 14 13 12 11 11 11 12 13 14 14 14 12 10 7 3 3 3 4 4 8 9 11 10 8 7 7 6
2 2 1 2 5 5 12 8 3 4 7 10 12 14 13 10 10 10 12 14 16 19 20 19 18 18 17 14 12 10 9 8 8 8 9 10 10 9 9 9 9 10 10 12 14 15 14 13 12 10 7 6 8 8 9 12 13 12 10 8 6 6 8
3 4 4 4 5 7 14 15 13 12 14 12 11 13 13 12 10 10 12 14 16 17 17 17 17 17 16 14 11 10 9 8 6 6 7 7 6 6 6 7 7 8 9 11 12 13 13 12 11 9 8 9 11 13 14 14 12 11 10 9 8 8 11
4 6 7 9 12 14 16 18 17 15 14 13 13 13 13 11 9 9 10 13 14 13 13 13 14 14 14 13 11 9 9 7 5 5 6 5 6 6 6 7 7 8 10 11 11 12 12 11 10 10 9 8 9 11 12 10 8 8 7 7 7 8 10
4 4 4 7 11 13 14 16 17 17 15 13 13 14 12 11 9 8 10 11 11 9 8 10 12 13 12 12 12 12 12 10 8 7 8 8 8 8 8 8 8 8 9 9 9 10 10 9 8 9 9 8 8 8 9 7 5 5 4 3 5 7 8
3 3 6 11 14 14 13 13 14 17 18 16 15 14 13 13 11 9 8 8 9 8 7 8 11 12 13 15 16 15 14 11 10 10 9 7 6 6 7 8 7 6 8 9 9 8 9 8 8 8 8 8 8 8 8 7 6 5 4 4 6 8 8
5 4 9 14 14 10 10 11 11 13 17 18 17 16 14 13 14 12 10 8 7 7 7 8 9 12 13 14 14 12 10 9 10 11 10 6 6 8 8 7 5 4 6 8 8 7 7 7 6 7 8 9 8 7 6 6 6 6 7 7 8 8 7
3 4 10 14 10 5 8 11 10 10 13 16 16 16 14 13 13 13 12 11 8 7 6 5 6 9 11 12 10 8 7 9 11 11 10 9 10 12 11 7 3 2 3 5 5 5 5 5 4 5 6 6 6 5 5 5 7 7 8 9 9 9 8
6 12 18 18 15 13 14 14 11 9 11 13 15 15 15 14 12 10 12 12 10 8 7 5 4 5 7 9 9 7 7 9 11 10 9 10 13 14 12 8 5 3 4 5 5 4 4 3 2 2 3 3 3 4 4 6 8 9 8 7 8 9 9
10 19 23 21 20 20 19 16 14 11 10 11 12 12 12 13 13 11 11 10 10 9 9 6 4 4 4 5 7 7 7 7 8 7 8 10 12 12 10 8 5 5 6 5 4 4 3 3 3 2 1 1 2 2 3 5 7 8 8 7 7 8 9
16 23 25 23 23 23 21 17 15 12 10 10 10 10 9 10 11 12 12 12 10 10 9 8 5 4 3 2 3 5 7 8 7 6 6 7 9 10 10 8 7 6 5 3 2 2 1 2 2 2 1 2 3 4 3 1 3 6 7 6 7 8 9
Wind_Direction
145 147 156 150 142 154 196 146 197 244 194 127 111 98 79 106 103 155 193 245 269 232 218 172 161 178 186 183 181 178 177 188 201 207 210 201 191 190 191 190 188 187 189 190 192 196 200 202 203 205 205 204 203 204 203 200 200 201 200 198 197 198 198
192 150 147 160 168 151 114 203 223 222 41 79 98 108 76 98 111 182 208 238 223 203 255 163 159 174 185 183 179 177 175 179 190 198 203 201 192 192 192 191 190 189 190 191 192 197 201 204 205 206 207 207 206 207 204 201 200 201 199 199 200 199 198
199 128 114 162 226 164 141 186 198 162 131 98 102 123 149 152 160 211 222 244 217 203 210 184 179 183 184 183 179 173 174 182 189 196 200 199 195 193 190 190 192 190 190 191 193 198 202 203 205 207 208 208 208 208 206 203 202 201 200 199 201 201 199
155 106 97 203 264 218 147 153 180 171 137 153 162 157 146 141 150 215 213 278 244 231 203 187 191 190 179 176 179 177 179 186 191 197 204 204 199 195 191 193 195 193 192 194 195 199 202 202 204 207 208 209 209 209 207 206 204 202 201 201 202 202 201
142 148 182 180 193 209 169 118 166 207 137 123 151 162 143 126 139 178 133 210 258 252 196 184 187 182 175 175 176 180 187 193 195 198 205 206 202 201 199 198 197 194 195 196 196 198 202 204 205 206 207 208 211 212 209 206 206 204 202 201 203 203 203
116 242 241 178 168 187 169 145 181 192 164 122 113 255 258 117 129 168 155 193 268 264 180 186 186 171 168 177 182 186 191 196 199 198 201 204 202 204 205 204 200 196 195 195 194 196 200 203 204 205 205 207 211 214 212 208 207 208 206 202 203 204 204
274 269 272 178 170 198 173 165 189 172 149 137 135 194 235 121 113 143 121 153 273 260 186 173 181 175 170 177 185 193 195 199 202 199 197 199 197 198 203 206 203 197 194 194 194 195 199 201 203 203 204 207 211 216 217 212 208 210 209 206 204 205 206
304 298 321 49 118 171 127 225 224 150 161 176 162 180 169 129 156 147 80 334 263 267 221 171 177 180 174 177 183 190 194 200 205 203 201 198 193 194 199 201 202 197 193 193 193 195 197 198 200 203 204 208 212 216 218 215 213 213 211 210 208 208 208
351 343 352 7 2 10 37 283 290 218 199 186 153 95 86 113 198 164 120 216 252 283 308 149 162 166 167 179 187 189 189 193 198 200 202 200 195 203 203 194 197 196 193 193 194 195 197 198 199 202 205 209 211 214 217 216 216 215 212 211 211 211 211
32 359 338 316 309 327 316 315 349 333 254 196 159 93 93 134 213 160 144 198 238 299 37 113 140 150 154 172 184 188 188 191 193 192 195 196 194 211 217 198 198 197 193 194 196 196 198 199 200 202 205 209 210 210 213 215 217 217 214 212 212 212 212
163 207 231 245 256 316 336 5 36 21 347 123 124 121 149 169 160 170 231 189 151 146 97 101 125 136 137 149 162 173 180 189 195 190 188 190 191 210 226 211 203 196 192 194 195 196 198 200 201 203 205 207 207 208 211 214 216 216 212 211 212 213 211
220 243 265 301 336 36 23 32 50 32 15 54 88 126 189 168 142 179 314 44 95 123 82 87 111 119 117 113 123 150 168 181 192 189 180 183 190 208 222 213 204 195 192 197 196 195 198 199 201 204 204 205 205 208 212 213 213 212 209 208 211 212 211
3 2 29 44 62 73 49 43 56 46 29 39 55 64 97 98 110 127 61 61 59 26 42 60 54 64 72 67 69 98 144 165 181 183 178 182 193 205 209 203 201 197 196 202 206 200 198 198 200 201 201 203 206 210 212 212 211 210 207 207 210 210 211
16 14 40 61 69 67 52 36 48 58 46 35 38 51 70 80 85 85 76 70 55 21 31 57 67 74 79 80 80 86 90 85 132 172 179 187 196 205 209 204 202 202 200 203 208 206 198 196 197 199 200 203 207 209 209 210 212 210 207 209 210 210 212
17 360 43 72 70 70 61 35 27 54 55 37 28 35 50 70 78 72 67 68 56 10 21 57 70 77 78 77 82 89 95 95 91 108 160 181 185 190 198 203 203 202 201 202 205 207 202 194 192 195 200 204 208 211 210 210 210 208 207 209 210 211 214
2 345 0 83 79 69 55 29 9 30 56 51 36 32 28 45 76 69 59 62 43 329 12 56 61 66 70 66 69 80 89 116 141 153 164 152 135 148 165 182 198 202 200 196 195 199 202 197 193 194 198 201 203 207 209 210 210 209 209 210 212 214 215
335 354 346 336 78 55 35 5 339 357 55 67 51 38 30 28 52 67 60 63 23 346 16 60 60 60 67 62 62 83 90 92 130 167 155 109 104 192 195 192 192 198 204 203 194 191 196 200 197 194 195 196 196 195 196 201 204 206 207 207 209 213 214
295 0 30 44 59 47 315 294 325 344 50 69 60 40 32 35 49 71 82 81 61 24 18 56 68 66 72 73 69 86 110 119 125 148 138 105 112 185 219 214 194 177 185 197 197 191 190 193 191 188 190 192 194 195 194 192 194 199 204 205 206 210 213
228 41 51 51 63 109 191 178 329 308 45 75 70 47 32 37 49 66 77 79 85 88 73 72 75 72 76 83 84 88 107 128 122 122 130 137 144 152 188 210 200 174 164 177 188 190 189 189 186 187 193 193 194 202 208 204 199 202 208 210 210 211 214
22 52 57 86 134 161 173 159 184 263 301 57 66 44 23 20 27 48 68 73 88 105 104 90 85 84 83 79 75 81 98 111 112 109 113 123 135 140 161 188 192 184 164 164 179 189 195 200 200 202 214 214 204 206 214 216 214 213 214 215 216 219 223
80 83 73 94 101 20 320 188 271 317 325 357 93 72 17 359 16 35 58 66 75 96 112 113 101 86 76 64 52 59 82 91 94 102 107 110 111 111 128 161 176 181 176 171 176 187 196 205 210 212 221 226 217 208 211 215 217 218 219 221 222 225 229
63 92 89 66 52 327 265 276 301 319 320 280 130 88 19 339 11 35 60 74 88 135 154 154 139 72 55 46 22 31 59 78 88 93 100 108 111 110 115 130 145 161 173 177 179 186 194 200 203 207 214 218 215 208 206 210 215 218 221 224 227 228 229
59 93 112 119 140 231 268 295 305 317 317 286 196 65 9 322 4 39 68 75 102 207 226 220 118 52 72 101 328 27 61 79 89 93 94 97 102 106 113 124 137 149 165 177 184 195 204 201 188 193 206 213 218 216 211 213 219 223 225 228 232 234 233
108 106 122 137 169 233 275 296 303 314 318 311 107 69 285 299 17 51 76 80 100 197 226 247 46 55 122 154 147 107 94 90 93 96 96 98 100 100 101 113 125 131 144 165 182 194 201 194 173 169 219 231 236 237 231 227 229 234 236 236 239 239 236
83 101 114 94 243 236 281 301 308 317 328 46 101 183 231 108 62 71 79 86 112 151 162 118 89 95 123 133 136 130 118 108 104 102 98 97 99 97 94 96 101 108 119 136 153 156 133 122 123 111 269 256 251 251 248 240 234 236 236 235 236 237 233
43 92 98 24 266 283 316 313 315 339 7 130 157 182 157 109 92 93 88 94 111 115 114 115 113 116 125 134 143 142 131 119 112 107 103 100 100 99 96 96 96 98 102 107 112 110 97 94 108 131 246 254 224 229 233 207 206 219 225 228 228 225 221
54 72 55 68 205 307 334 329 317 0 51 164 150 111 107 110 108 103 102 112 118 115 116 120 124 130 136 140 143 142 134 126 118 110 106 104 102 101 97 91 84 79 86 94 97 96 90 88 95 109 150 178 139 153 151 130 151 186 203 217 220 195 183
97 100 45 170 204 316 5 34 92 66 91 135 131 109 105 112 115 111 115 125 127 123 125 129 134 140 140 140 144 143 134 128 124 118 114 108 104 101 95 86 70 60 72 87 91 90 88 86 88 100 125 144 135 132 126 119 129 150 163 172 169 141 126
115 143 169 154 122 59 54 70 87 93 99 109 111 110 110 112 120 125 126 131 135 133 131 134 140 146 146 143 142 139 135 132 128 127 125 115 107 106 101 91 74 68 80 92 94 94 96 97 101 105 116 130 133 132 129 128 131 136 140 144 146 136 124
83 93 113 110 92 79 76 78 82 91 102 102 96 96 97 99 113 128 131 135 139 138 138 140 140 143 148 147 142 142 145 144 139 138 136 124 115 113 106 97 90 91 97 99 99 101 103 108 113 112 114 126 134 133 134 138 140 139 139 144 149 147 137
96 85 122 114 96 90 87 85 85 88 95 104 103 93 86 87 97 113 128 139 144 140 136 138 138 138 141 139 137 140 142 138 130 129 129 124 119 112 103 97 97 101 106 105 105 107 108 110 114 112 111 119 125 124 128 134 134 128 132 154 161 154 148
89 128 146 120 105 103 101 94 90 88 92 103 106 97 87 84 86 94 107 126 146 152 147 143 140 135 134 136 138 142 144 142 138 138 140 137 135 135 127 114 101 98 105 107 107 109 110 111 113 111 110 116 120 122 127 136 140 135 133 140 147 147 150
78 98 128 116 101 97 105 106 102 96 98 104 106 102 96 87 84 87 87 87 105 127 141 155 150 139 140 145 145 147 154 158 161 163 166 169 169 167 157 137 102 78 91 97 95 98 106 111 110 105 104 106 105 109 123 138 147 153 159 161 160 165 174
135 182 160 141 125 123 131 128 124 116 112 110 106 103 103 99 92 89 87 86 93 103 115 141 152 148 154 161 159 154 152 155 164 172 174 170 167 168 167 161 145 95 96 100 95 97 105 106 99 92 95 96 89 90 117 143 151 159 166 168 170 181 191
187 182 169 154 142 143 146 144 143 140 133 124 112 101 100 107 112 105 94 90 92 101 107 119 139 149 161 173 180 181 164 152 157 163 166 169 172 173 173 174 178 178 162 143 128 126 125 117 100 82 88 94 81 77 109 140 158 170 176 172 168 177 187
158 165 162 153 145 147 152 157 159 156 149 138 126 114 107 108 112 116 115 105 96 97 101 106 122 142 161 180 193 201 199 185 176 170 167 171 177 182 184 184 185 186 177 161 149 153 163 177 196 209 195 76 52 58 105 139 160 173 177 172 170 177 187
158 160 157 151 149 151 154 159 162 160 159 156 146 136 127 119 113 115 118 117 114 111 105 100 101 106 116 151 186 206 213 214 214 213 209 202 197 196 197 197 200 206 208 205 194 187 196 219 219 234 317 359 15 22 39 104 172 183 179 166 161 171 185